Regional Weather Roundup
Issued by NWS

Home | Current Version | Previous Version | Graphics & Text | Print | Product List | Glossary On
Versions: 1 2 3 4 5 6 7 8 9 10 11 12 13 14 15 16 17 18 19 20 21 22 23 24 25 26 27 28 29 30 31 32 33 34 35 36 37 38 39 40 41 42 43 44 45 46 47 48 49 50
000
ASUS45 KTFX 110904
RWRMT
MONTANA HOURLY WEATHER ROUNDUP
NATIONAL WEATHER SERVICE GREAT FALLS MT
304 AM MDT FRI JUL 11 2014

NOTE: "FAIR" INDICATES FEW OR NO CLOUDS BELOW 12000 FEET WITH NO
SIGNIFICANT WEATHER AND/OR OBSTRUCTIONS TO VISIBILITY.

* THESE STATIONS ARE NOT UNDER NWS QUALITY CONTROL. THEY DO NOT
   REPORT WEATHER SUCH AS PRECIPITATION OR FOG.

MTZ001>007-043-111000-
WEST OF THE DIVIDE
CITY           SKY/WX    TMP DP  RH WIND       PRES   REMARKS
KALISPELL      CLEAR     68  48  49 NE15G33   29.97R
MISSOULA       CLEAR     59  39  48 NE3       29.99R
BUTTE          PTCLDY    55  41  59 SE3       30.11R
MULLAN PASS    CLEAR     61  36  39 N3        30.13S
* ESSEX        N/A      N/A N/A N/A N/A        N/A
* LINCOLN      N/A       48  40  74 E1         N/A
* LOOKOUT PASS N/A       58  41  53 S1         N/A
* POLSON       N/A       64  40  41 NE1        N/A
* RONAN APT    CLEAR     54  46  74 N/A        N/A
* SEELEY LAKE  N/A       47  41  80 E2G7       N/A
* THOMP F APT  CLEAR     65  43  45 NE4        N/A
* YAAK HILL    N/A       59  48  67 N/A        N/A
$$

MTZ008-052>055-111000-
SOUTHWEST MONTANA
CITY           SKY/WX    TMP DP  RH WIND       PRES   REMARKS
BOZEMAN        CLEAR     55  46  72 CALM      30.01S
DILLON         CLEAR     57  39  51 SE7       30.05R
W YELLOWSTONE  FAIR      48  46  93 CALM      30.17S
* THREE FORKS  PTCLDY    57  57 100 N/A        N/A
* BOULDER HILL N/A       63  32  31 N/A        N/A
* MONIDA PASS  N/A       57  46  67 S1         N/A
* RAYNOLDS PAS N/A       56  37  49 SE5        N/A
* WHITEHALL    N/A       60  37  43 N2G7       N/A
* WISE RIVER   N/A       55  38  53 S5         N/A
$$

MTZ009>010-012-014-046-048-049-054-111000-
EAST SLOPES AND CENTRAL MONTANA
CITY           SKY/WX    TMP DP  RH WIND       PRES   REMARKS
CUT BANK       PTCLDY    55  50  83 N20       30.14R
GREAT FALLS    PTCLDY    63  55  75 N14       30.04R
HELENA         CLEAR     66  36  33 W8        30.01R
* CONRAD       PTCLDY    63  55  75 W11G17     N/A
* DEARBORN     N/A       68  55  63 N11G18     N/A
* EAST GLACIER N/A       54  49  83 NE11       N/A
* MONARCH      N/A       51  33  50 S4         N/A
* PENDROY      N/A       58  50  75 N18G26     N/A
* SAINT MARY   N/A       56  50  80 NE3G9      N/A
* SWEET GRASS  N/A       56  54  93 N16        N/A
$$

MTZ011-013-016-021-035-040-045-047-050-051-111000-
NORTH CENTRAL MONTANA
CITY           SKY/WX    TMP DP  RH WIND       PRES   REMARKS
HAVRE          CLOUDY    61  59  93 E12       30.03R
* CHESTER      N/A       62  53  73 NE16G27    N/A
* DENTON       N/A       59  50  72 E1G6       N/A
* GEYSER       N/A       54  45  72 SW6        N/A
* JUDITH GAP   N/A       64  45  50 SW8        N/A
* LOMA         N/A       67  58  73 N27G36     N/A
$$

MTZ017>020-022>027-061-062-111000-
NORTHEAST MONTANA
CITY           SKY/WX    TMP DP  RH WIND       PRES   REMARKS
GLASGOW        TSTM      66  57  73 E13G22    29.93R
GLENDIVE       PTCLDY    63  55  75 N3        29.93R
JORDAN         PTCLDY    66  57  73 E7        29.92S
SIDNEY         PTCLDY    61  55  81 NW3       29.93R
WOLF POINT     MOCLDY    61  55  81 E6        29.93R
* BEAVER HILL  N/A       62  59  90 N8         N/A
* CIRCLE       N/A       66  59  78 NE7        N/A
* LINDSAY DVD  N/A       60  57  90 SE1        N/A
* NAVAJO       N/A       59  56  90 VRB9       N/A
$$

MTZ028>042-056>058-111000-
SOUTHCENTRAL AND SOUTHEAST MONTANA
CITY           SKY/WX    TMP DP  RH WIND       PRES   REMARKS
BAKER          CLEAR     61  57  87 S5        29.92S
BILLINGS       CLEAR     70  48  46 NW5       29.91S
LIVINGSTON     CLEAR     55  45  69 W6        30.01R
MILES CITY     PTCLDY    66  63  90 NE9       29.90S
* LAUREL APT   CLEAR     70  48  46 N/A        N/A
* ROUNDUP APT  CLEAR     68  46  45 N/A        N/A
* ALZADA       N/A       65  58  78 NW4        N/A
* HYSHAM       N/A       67  47  49 SE4        N/A
* LAME DEER    N/A       69  48  47 E6         N/A
* REED POINT   N/A       65  47  52 SW6        N/A
* ROSCOE HILL  N/A       71  39  31 SW9G18     N/A
$$

REGIONAL REPORTS...DAKOTAS
CITY           SKY/WX    TMP DP  RH WIND       PRES   REMARKS
WILLISTON      CLEAR     61  57  87 NE7       29.89S
DICKINSON      FOG       63  61  93 NW8       29.87F
CROSBY         N/A       57  57 100 CALM      29.91S
WATFORD CITY   CLEAR     55  55 100 CALM      29.88R
BISMARCK       PTCLDY    64 N/A N/A NE5       29.82F
GRAND FORKS    CLEAR     64  63  97 S5        29.76F
FARGO          CLEAR     70  66  87 SE7       29.78F
BUFFALO SD     CLEAR     64  61  90 CALM      29.85S
RAPID CITY     MOCLDY    66  63  90 CALM      29.92S
$$

REGIONAL REPORTS...WYOMING/IDAHO/WASHINGTON
CITY           SKY/WX    TMP DP  RH WIND       PRES   REMARKS
GILLETTE       PTCLDY    64  55  73 SE3       29.99R
SHERIDAN       PTCLDY    61  54  78 CALM      29.95S
CODY           CLEAR     66  54  65 SW13      30.04F
YELLOWSTONE LA CLEAR     45  43  93 CALM      30.28S
SALMON         CLEAR     59  48  67 CALM      29.97S
MULLAN PASS    CLEAR     61  36  39 N3        30.13S
SAND POINT     CLEAR     55  54  96 CALM      29.92R
SPOKANE        PTCLDY    72  43  35 E3        29.90R

$$



USA.gov is the U.S. government's official web portal to all federal, state and local government web resources and services.